TimeEST,TemperatureF,Dew PointF,Humidity,Sea Level PressureIn,VisibilityMPH,Wind Direction,Wind SpeedMPH,Gust SpeedMPH,PrecipitationIn,Events,Conditions,WindDirDegrees,DateUTC
12:55 AM,46.9,42.1,83,29.62,10.0,North,5.8,-,N/A,,Overcast,360,2012-12-11 05:55:00
1:55 AM,46.0,37.8,73,29.64,10.0,NW,11.5,-,N/A,,Overcast,320,2012-12-11 06:55:00
2:55 AM,45.3,36.7,72,29.66,10.0,North,4.6,-,N/A,,Overcast,10,2012-12-11 07:55:00
3:53 AM,44.6,37.4,76,29.69,10.0,West,5.8,-,N/A,,Overcast,270,2012-12-11 08:53:00
3:55 AM,44.2,37.6,77,29.70,10.0,Variable,5.8,-,0.00,,Overcast,0,2012-12-11 08:55:00
4:39 AM,41.0,37.4,87,29.70,10.0,West,5.8,-,N/A,,Overcast,270,2012-12-11 09:39:00
4:55 AM,41.7,38.3,88,29.71,10.0,West,3.5,-,0.02,,Overcast,270,2012-12-11 09:55:00
5:55 AM,41.4,37.4,86,29.74,10.0,WNW,9.2,-,N/A,,Overcast,290,2012-12-11 10:55:00
6:55 AM,41.2,36.9,85,29.76,10.0,West,6.9,-,N/A,,Overcast,280,2012-12-11 11:55:00
7:55 AM,41.5,35.1,78,29.81,10.0,NW,8.1,-,N/A,,Mostly Cloudy,310,2012-12-11 12:55:00
8:55 AM,40.5,30.2,67,29.87,10.0,WNW,20.7,25.3,N/A,,Overcast,290,2012-12-11 13:55:00
9:55 AM,42.3,29.3,60,29.88,10.0,NW,15.0,24.2,N/A,,Partly Cloudy,320,2012-12-11 14:55:00
10:55 AM,43.5,27.9,54,29.88,10.0,WNW,16.1,24.2,N/A,,Clear,300,2012-12-11 15:55:00
11:55 AM,44.6,27.3,51,29.89,10.0,WNW,11.5,-,N/A,,Partly Cloudy,290,2012-12-11 16:55:00
12:55 PM,44.6,25.9,48,29.91,10.0,NW,8.1,-,N/A,,Partly Cloudy,320,2012-12-11 17:55:00
1:55 PM,44.4,25.3,47,29.94,10.0,WNW,15.0,24.2,N/A,,Clear,300,2012-12-11 18:55:00
2:55 PM,41.9,23.7,49,29.97,10.0,WNW,16.1,20.7,N/A,,Clear,300,2012-12-11 19:55:00
3:55 PM,39.6,23.7,53,30.01,10.0,NW,9.2,-,N/A,,Overcast,310,2012-12-11 20:55:00
4:55 PM,37.4,22.3,54,30.03,10.0,NNW,6.9,-,N/A,,Overcast,340,2012-12-11 21:55:00
5:55 PM,36.9,21.4,54,30.06,10.0,NW,10.4,17.3,N/A,,Scattered Clouds,310,2012-12-11 22:55:00
6:55 PM,35.1,21.6,58,30.09,10.0,NNW,6.9,-,N/A,,Clear,340,2012-12-11 23:55:00
7:55 PM,34.2,19.6,55,30.12,10.0,NW,4.6,-,N/A,,Clear,320,2012-12-12 00:55:00
8:55 PM,31.6,20.5,63,30.14,10.0,West,5.8,-,N/A,,Clear,270,2012-12-12 01:55:00
9:55 PM,30.2,20.1,66,30.16,10.0,West,4.6,-,N/A,,Clear,260,2012-12-12 02:55:00
10:55 PM,29.5,19.6,67,30.17,10.0,SW,4.6,-,N/A,,Clear,230,2012-12-12 03:55:00
11:55 PM,30.2,19.2,64,30.19,10.0,WSW,3.5,-,N/A,,Clear,250,2012-12-12 04:55:00